When you browse on this site, cookies collect data to enhance your experience and personalize the content and advertising you see.
Visit our Privacy Policy to learn more. By continuing to use the site, you agree to this use of cookies and data.
  • In Czech Republic
  • List of Countries
  • For 7 days
  • Water Temperature
  • Weather Map
  • Weather Widgets
  • user-avatar
    Login

    Hourly Weather Matanza

    Today, 5 June, Friday

    Time Temperature Precipitation Wind Pressure Humidity
    00:00 +14°C° 0 mm 2 mps 596 mmHg 86%
    01:00 +14°C° 0 mm 2 mps 596 mmHg 85%
    02:00 +14°C° 0.1 mm 2 mps 596 mmHg 84%
    03:00 +14°C° 0.1 mm 2 mps 596 mmHg 82%
    04:00 +14°C° 0.1 mm 2 mps 596 mmHg 81%
    05:00 +15°C° 0 mm 2 mps 596 mmHg 79%
    06:00 +16°C° 0 mm 1 mps 597 mmHg 77%
    07:00 +19°C° 0 mm 1 mps 598 mmHg 73%
    08:00 +20°C° 0 mm 1 mps 599 mmHg 70%
    09:00 +21°C° 0 mm 1 mps 599 mmHg 68%
    10:00 +23°C° 0 mm 2 mps 600 mmHg 65%
    11:00 +23°C° 0.7 mm 2 mps 599 mmHg 68%
    12:00 +23°C° 0.7 mm 1 mps 599 mmHg 72%
    13:00 +23°C° 0.7 mm 1 mps 598 mmHg 75%
    14:00 +22°C° 1.2 mm 1 mps 598 mmHg 78%
    15:00 +22°C° 1.2 mm 1 mps 597 mmHg 82%
    16:00 +21°C° 1.2 mm 1 mps 597 mmHg 85%
    17:00 +20°C° 1 mm 1 mps 597 mmHg 88%
    18:00 +18°C° 1 mm 1 mps 596 mmHg 91%
    19:00 +16°C° 1 mm 1 mps 596 mmHg 93%
    20:00 +16°C° 0.2 mm 2 mps 596 mmHg 92%
    21:00 +15°C° 0.2 mm 2 mps 597 mmHg 91%
    22:00 +15°C° 0.2 mm 2 mps 597 mmHg 90%
    23:00 +15°C° 0.3 mm 2 mps 597 mmHg 89%

    Tomorrow, 6 June, Saturday

    Time Temperature Precipitation Wind Pressure Humidity
    00:00 +15°C° 0.3 mm 2 mps 596 mmHg 88%
    01:00 +15°C° 0.3 mm 2 mps 596 mmHg 87%
    02:00 +15°C° 0.2 mm 2 mps 596 mmHg 86%
    03:00 +14°C° 0.2 mm 2 mps 596 mmHg 86%
    04:00 +14°C° 0.2 mm 2 mps 596 mmHg 85%
    05:00 +15°C° 0.2 mm 1 mps 596 mmHg 84%
    06:00 +16°C° 0.2 mm 1 mps 597 mmHg 83%
    07:00 +18°C° 0.2 mm 1 mps 598 mmHg 81%
    08:00 +19°C° 0.3 mm 1 mps 598 mmHg 80%
    09:00 +20°C° 0.3 mm 1 mps 599 mmHg 78%
    10:00 +21°C° 0.3 mm 1 mps 600 mmHg 76%
    11:00 +21°C° 1.3 mm 1 mps 599 mmHg 80%
    12:00 +21°C° 1.3 mm 1 mps 599 mmHg 83%
    13:00 +21°C° 1.3 mm 1 mps 598 mmHg 87%
    14:00 +21°C° 1.5 mm 1 mps 597 mmHg 87%
    15:00 +21°C° 1.5 mm 1 mps 597 mmHg 88%
    16:00 +20°C° 1.5 mm 1 mps 596 mmHg 89%
    17:00 +19°C° 1 mm 1 mps 596 mmHg 91%
    18:00 +18°C° 1 mm 1 mps 596 mmHg 92%
    19:00 +16°C° 1 mm 1 mps 596 mmHg 94%
    20:00 +16°C° 0.7 mm 1 mps 596 mmHg 93%
    21:00 +15°C° 0.7 mm 1 mps 597 mmHg 92%
    22:00 +15°C° 0.7 mm 1 mps 597 mmHg 92%
    23:00 +14°C° 0.3 mm 1 mps 597 mmHg 91%

    Day after tomorrow, 7 June, Sunday

    Time Temperature Precipitation Wind Pressure Humidity
    00:00 +14°C° 0.3 mm 1 mps 596 mmHg 90%
    01:00 +14°C° 0.3 mm 1 mps 596 mmHg 90%
    02:00 +14°C° 0.3 mm 1 mps 596 mmHg 89%
    03:00 +14°C° 0.3 mm 1 mps 596 mmHg 88%
    04:00 +14°C° 0.3 mm 1 mps 596 mmHg 88%
    05:00 +15°C° 0.1 mm 1 mps 597 mmHg 86%
    06:00 +16°C° 0.1 mm 1 mps 597 mmHg 84%
    07:00 +15°C° 0.1 mm 0 mps 598 mmHg 82%
    08:00 +19°C° 0.2 mm 1 mps 599 mmHg 80%
    09:00 +20°C° 0.2 mm 1 mps 599 mmHg 78%
    10:00 +20°C° 0.2 mm 2 mps 600 mmHg 75%
    11:00 +21°C° 1.4 mm 1 mps 599 mmHg 78%
    12:00 +21°C° 1.4 mm 1 mps 599 mmHg 81%
    13:00 +21°C° 1.4 mm 1 mps 598 mmHg 84%
    14:00 +20°C° 1.9 mm 1 mps 597 mmHg 87%
    15:00 +20°C° 1.9 mm 1 mps 597 mmHg 89%
    16:00 +20°C° 1.9 mm 1 mps 596 mmHg 92%
    17:00 +19°C° 1 mm 1 mps 596 mmHg 93%
    18:00 +18°C° 1 mm 1 mps 596 mmHg 93%
    19:00 +16°C° 1 mm 1 mps 596 mmHg 94%
    20:00 +15°C° 0.3 mm 1 mps 596 mmHg 93%
    21:00 +15°C° 0.3 mm 1 mps 597 mmHg 92%
    22:00 +15°C° 0.3 mm 1 mps 597 mmHg 91%
    23:00 +15°C° 0.3 mm 1 mps 597 mmHg 91%

    8 June, Monday

    Time Temperature Precipitation Wind Pressure Humidity
    00:00 +15°C° 0.3 mm 1 mps 597 mmHg 90%
    01:00 +15°C° 0.3 mm 1 mps 596 mmHg 90%
    02:00 +14°C° 0.3 mm 1 mps 596 mmHg 90%
    03:00 +13°C° 0.3 mm 0 mps 596 mmHg 91%
    04:00 +13°C° 0.3 mm 0 mps 596 mmHg 92%
    05:00 +13°C° 0 mm 0 mps 596 mmHg 91%
    06:00 +14°C° 0 mm 0 mps 597 mmHg 90%
    07:00 +14°C° 0 mm 0 mps 597 mmHg 89%
    08:00 +18°C° 0.2 mm 1 mps 598 mmHg 87%
    09:00 +19°C° 0.2 mm 1 mps 599 mmHg 84%
    10:00 +20°C° 0.2 mm 1 mps 599 mmHg 81%
    11:00 +20°C° 0.6 mm 1 mps 599 mmHg 81%
    12:00 +20°C° 0.6 mm 1 mps 598 mmHg 82%
    13:00 +20°C° 0.6 mm 1 mps 597 mmHg 82%
    14:00 +20°C° 0.9 mm 1 mps 597 mmHg 85%
    15:00 +20°C° 0.9 mm 1 mps 596 mmHg 87%
    16:00 +19°C° 0.9 mm 1 mps 596 mmHg 90%
    17:00 +19°C° 1.2 mm 1 mps 596 mmHg 91%
    18:00 +18°C° 1.2 mm 1 mps 596 mmHg 93%
    19:00 +16°C° 1.2 mm 1 mps 596 mmHg 95%
    20:00 +16°C° 0.7 mm 1 mps 596 mmHg 94%
    21:00 +16°C° 0.7 mm 1 mps 597 mmHg 94%
    22:00 +15°C° 0.7 mm 1 mps 597 mmHg 94%
    23:00 +15°C° 0.6 mm 1 mps 597 mmHg 94%

    9 June, Tuesday

    Time Temperature Precipitation Wind Pressure Humidity
    00:00 +14°C° 0.6 mm 0 mps 596 mmHg 95%
    01:00 +14°C° 0.6 mm 0 mps 596 mmHg 96%
    02:00 +13°C° 0.2 mm 0 mps 596 mmHg 96%
    03:00 +13°C° 0.2 mm 0 mps 596 mmHg 95%
    04:00 +13°C° 0.2 mm 0 mps 595 mmHg 95%
    05:00 +13°C° 0.1 mm 0 mps 596 mmHg 95%
    06:00 +13°C° 0.1 mm 0 mps 596 mmHg 95%
    07:00 +14°C° 0.1 mm 0 mps 597 mmHg 95%
    08:00 +16°C° 0.2 mm 1 mps 597 mmHg 92%
    09:00 +18°C° 0.2 mm 1 mps 598 mmHg 90%
    10:00 +19°C° 0.2 mm 1 mps 599 mmHg 88%
    11:00 +19°C° 0.7 mm 1 mps 598 mmHg 89%
    12:00 +19°C° 0.7 mm 1 mps 597 mmHg 90%
    13:00 +19°C° 0.7 mm 1 mps 597 mmHg 91%
    14:00 +19°C° 0.7 mm 1 mps 596 mmHg 91%
    15:00 +19°C° 0.7 mm 1 mps 596 mmHg 91%
    16:00 +19°C° 0.7 mm 1 mps 595 mmHg 91%
    17:00 +18°C° 1 mm 1 mps 595 mmHg 92%
    18:00 +15°C° 1 mm 0 mps 596 mmHg 94%
    19:00 +15°C° 1 mm 0 mps 596 mmHg 95%
    20:00 +15°C° 0.9 mm 1 mps 596 mmHg 95%
    21:00 +15°C° 0.9 mm 1 mps 596 mmHg 95%
    22:00 +15°C° 0.9 mm 1 mps 596 mmHg 94%
    23:00 +15°C° 0.4 mm 1 mps 596 mmHg 94%

    10 June, Wednesday

    Time Temperature Precipitation Wind Pressure Humidity
    00:00 +15°C° 0.4 mm 1 mps 596 mmHg 94%
    01:00 +13°C° 0.4 mm 0 mps 596 mmHg 93%
    02:00 +13°C° 0.2 mm 0 mps 595 mmHg 93%
    03:00 +13°C° 0.2 mm 0 mps 595 mmHg 93%
    04:00 +13°C° 0.2 mm 0 mps 595 mmHg 94%
    05:00 +14°C° 0.1 mm 0 mps 596 mmHg 93%
    06:00 +14°C° 0.1 mm 0 mps 596 mmHg 92%
    07:00 +14°C° 0.1 mm 0 mps 597 mmHg 91%
    08:00 +16°C° 0.1 mm 0 mps 597 mmHg 87%
    09:00 +19°C° 0.1 mm 1 mps 598 mmHg 82%
    10:00 +20°C° 0.1 mm 1 mps 599 mmHg 78%
    11:00 +20°C° 0.7 mm 1 mps 598 mmHg 81%
    12:00 +20°C° 0.7 mm 1 mps 597 mmHg 85%
    13:00 +20°C° 0.7 mm 1 mps 596 mmHg 88%
    14:00 +20°C° 1.2 mm 1 mps 596 mmHg 88%
    15:00 +20°C° 1.2 mm 1 mps 596 mmHg 88%
    16:00 +19°C° 1.2 mm 1 mps 595 mmHg 88%
    17:00 +18°C° 1 mm 1 mps 595 mmHg 90%
    18:00 +16°C° 1 mm 1 mps 595 mmHg 93%
    19:00 +15°C° 1 mm 1 mps 595 mmHg 95%
    20:00 +15°C° 0.9 mm 1 mps 596 mmHg 94%
    21:00 +15°C° 0.9 mm 1 mps 596 mmHg 93%
    22:00 +14°C° 0.9 mm 0 mps 597 mmHg 93%
    23:00 +14°C° 0.9 mm 0 mps 596 mmHg 94%
    Show more